Location: Makakahi
(40.6833°S, 175.6000°E)
Time: 23:30:01
(UTC+00:00)

FENGYUN 1C DEB - Pass Details

Date: 09 December 2024
Orbit: 812 x 877 km, 98.8° (Epoch: 19 January)

Event Time Altitude Azimuth Distance (km) Brightness Sun altitude
Rises 09:47:59 0° 175° (S) 3,381 ? -18.4°
Reaches altitude 10° 09:50:28 10° 182° (S) 2,447 ? -18.6°
Maximum altitude 09:55:26 39° 248° (WSW) 1,237 ? -19.1°
Drops below altitude 10° 10:00:26 10° 316° (NW) 2,453 ? -19.6°
Sets 10:02:56 0° 323° (NW) 3,389 ? -19.9°
Enters shadow 10:03:04 - 323° (NW) 3,440 ? -19.9°
